Main page
METAR-TAF:

METAR-TAF

Airports :

Altamira Airport

Altamira, Pará, Brazil

latitude: 03-12S, longitude: 052-12W, elevation: 74 m

Current weather observation

The report was made 49 minutes ago, at 15:00 UTC
Wind 6 kt from the East/Southeast
Temperature 31°C
Humidity 66%
Pressure 1013 hPa
Visibility 10 km or more
Broken clouds at a height of 2000 ft

METAR: SBHT 161500Z 12006KT 9999 BKN020 31/24 Q1013

Time: 12:49 (15:49 UTC)


TAF: missing

Weather observations and forecasts of more than 4000 airports (METAR and TAF reports).

The available stations are represented by yellow and red dots on the map.

Hover mouse over dot to see the name of the station.

Then click to see weather observations and forecasts.

To change the map : click on the green buttons with a black cross to zoom in, on the green button with a dash to zoom out, or on the green arrows for adjacent maps.


METAR-TAF: